Location: Kapla
(46.2483°N, 15.0094°E)
Time: 06:51:10
(UTC+00:00)

Meteor 1-11 Rocket - Pass Details

Date: 03 March 2021
Orbit: 831 x 916 km, 81.2° (Epoch: 18 April)

Event Time Altitude Azimuth Distance (km) Brightness Sun altitude
Rises 19:23:30 0° 201° (SSW) 3,466 6.9 -27.1°
Reaches altitude 10° 19:26:00 10° 205° (SSW) 2,518 6.2 -27.5°
Maximum altitude 19:31:38 59° 284° (WNW) 992 4.2 -28.4°
Drops below altitude 10° 19:37:11 10° 4° (N) 2,481 6.3 -29.3°
Sets 19:39:38 0° 8° (N) 3,411 7.0 -29.7°
